Location: Freistadt
(48.5112°N, 14.5013°E)
Time: 22:54:44
(UTC+02:00)

M-CUBED/EXP-1 PRIME - Pass Details

Date: 07 April 2023
Orbit: 405 x 573 km, 101.7° (Epoch: 31 May)

Event Time Altitude Azimuth Distance (km) Brightness Sun altitude
Rises 02:15:22 0° 17° (NNE) 2,809 ? -32.7°
Reaches altitude 10° 02:17:34 10° 16° (NNE) 1,888 ? -32.5°
Enters shadow 02:19:10 23° 13° (NNE) 1,246 ? -32.4°
